Regional Weather Roundup
Issued by NWS New Orleans/Baton Rouge, LA

Home | Current Version | Previous Version | Text Only | Print | Product List | Glossary On
Versions: 1 2 3 4 5 6 7 8 9 10 11 12 13 14 15 16 17 18 19 20 21 22 23 24 25 26 27 28 29 30 31 32 33 34 35 36 37 38 39 40 41 42 43 44 45 46 47 48 49 50
128
ASUS44 KLIX 222313
RWRLIX
NEW ORLEANS REGIONAL WEATHER ROUNDUP
NATIONAL WEATHER SERVICE NEW ORLEANS LA
600 PM CDT WED MAR 22 2017

NOTE: "FAIR" INDICATES FEW OR NO CLOUDS BELOW 12,000 FEET WITH NO
      SIGNIFICANT WEATHER AND/OR OBSTRUCTIONS TO VISIBILITY.
      SKY/WX - SKY CONDITION AND SIGNIFICANT WEATHER.
      TMP - AIR TEMPERATURE.     DP    - DEWPOINT TEMPERATURE.
      RH  - RELATIVE HUMIDITY.   PRES  - PRESSURE.
      HI  - HEAT INDEX.          WCI   - WIND CHILL INDEX.

*  THESE STATIONS ARE NOT NWS OR FAA STATIONS AND ARE NOT UNDER
   NWS QUALITY CONTROL.

LAZ038-040-048-061>063-065>067-069-230000-
SOUTHEAST LOUISIANA

CITY           SKY/WX    TMP DP  RH WIND       PRES   REMARKS
N.O. INTL ARPT MOSUNNY   78  59  51 CALM      30.11S
N.O. LAKEFRONT SUNNY     76  67  73 W8        30.11S
N.O. DOWNTOWN*   N/A     81  52  36 NW5       30.12S
RESERVE*         N/A     83  56  39 W3        30.11S
SLIDELL        SUNNY     79  63  57 VRB7      30.09R
BATON ROUGE    MOSUNNY   82  55  39 W7        30.12R
BOOTHVILLE     SUNNY     76  66  71 SW9       30.12S
BELLE CHASSE   MOSUNNY   79  57  46 NW5       30.11R
BOGALUSA*        N/A     82  57  41 W3        30.10S
GALLIANO*      CLEAR     79  63  58 S7        30.11S
NEW ROADS*       N/A     81  54  39 NW7       30.13R
GONZALES*        N/A     82  53  36 NW6       30.11R
HAMMOND*       PTSUNNY   82  54  36 W5        30.10S
HOUMA*         SUNNY     79  59  50 NE3       30.11S
PORT FOURCHON* CLEAR     75  66  73 SW10      30.13R

$$

MSZ070-080>082-230000-
SOUTHERN MISSISSIPPI

CITY           SKY/WX    TMP DP  RH WIND       PRES   REMARKS
MCCOMB         MOSUNNY   82  52  35 W7        30.11R
GULFPORT       MOSUNNY   81  63  54 SW5       30.07R
BILOXI         MOSUNNY   76  66  71 W13       30.08R
PASCAGOULA     MOSUNNY   81  60  48 VRB7      30.07R
STENNIS ARPT*  SUNNY     82  46  28 NE5       30.09R

$$

COASTAL OBSERVATIONS
LAKE AND NEARSHORE STATIONS

STATION/POSITION TIME  TEMP    WIND        PRES    WAVE
                       AIR SEA DIR/SP/G            HT/PER
                 (UTC) (F)     (DEG/KT/KT) (MB)    (FT/S)
PASCAGOULA       2248   73     240/ 10/ 13 1018.3
WAVELAND YACHT   2248          210/  8/ 11 1018.5
GRAND ISLE       2248   76 70  210/  6/  8 1020.0
SOUTHWEST PASS   2248          270/  7/  8   N/A
NEW CANAL        2248   78 74  260/  4/  5 1018.9
SHELL BEACH      2248          210/  6/  7 1019.6

OFFSHORE STATIONS

STATION/POSITION TIME  TEMP    WIND        PRES    WAVE
                       AIR SEA DIR/SP/G            HT/PER
                 (UTC) (F)     (DEG/KT/KT) (MB)    (FT/S)
64 S DAUPHIN ISL 2250   70 73  270/ 10/ 12 1019.6    1/ 4

$$





USA.gov is the U.S. government's official web portal to all federal, state and local government web resources and services.